Location: Chippewa Lake
(41.0698°N, 81.9010°W)
Time: 21:12:02
(UTC+00:00)

Cosmos 1271 Rocket - Pass Details

Date: 09 May 2021
Orbit: 497 x 545 km, 81.2° (Epoch: 16 June)

Event Time Altitude Azimuth Distance (km) Brightness Sun altitude
Exits shadow 03:20:50 44° 28° (NNE) 759 3.6 -24.9°
Drops below altitude 10° 03:23:42 10° 14° (NNE) 1,822 6.0 -25.2°
Sets 03:25:53 0° 12° (NNE) 2,720 7.0 -25.4°
